This is the latest recevied weather packets stored in our database for station/object IZ1UQG-1. If no packets are shown the sender has not sent any weather packets the latest 10 day(s).
| Time | Temp. | Humidity | Pressure | Rain* | Wind** | Luminosity | Snow |
|---|---|---|---|---|---|---|---|
| 1777924437 | 20.56° C | 46% | 1015.3 hPa | 130.05 mm | - | - | - |
| 1777924137 | 20.56° C | 46% | 1015.2 hPa | 117.09 mm | - | - | - |
| 1777923837 | 20.56° C | 46% | 1015.1 hPa | 71.63 mm | - | - | - |
| 1777923537 | 20.56° C | 46% | 1015.1 hPa | 52.83 mm | - | - | - |
| 1777923237 | 20.56° C | 46% | 1015 hPa | 127.51 mm | - | - | - |
| 1777922937 | 20.56° C | 45% | 1014.9 hPa | 89.66 mm | - | - | - |
| 1777922637 | 20.56° C | 45% | 1014.9 hPa | 91.69 mm | - | - | - |
| 1777922337 | 21.11° C | 45% | 1014.9 hPa | 51.82 mm | - | - | - |
| 1777922037 | 21.11° C | 45% | 1014.7 hPa | 181.86 mm | - | - | - |
| 1777921737 | 21.11° C | 45% | 1014.7 hPa | 164.34 mm | - | - | - |
| 1777921437 | 21.11° C | 45% | 1014.7 hPa | 133.1 mm | - | - | - |
| 1777921137 | 21.11° C | 45% | 1014.5 hPa | 60.2 mm | - | - | - |
| 1777920837 | 21.11° C | 45% | 1014.5 hPa | 196.34 mm | - | - | - |
| 1777920537 | 21.67° C | 44% | 1014.4 hPa | 173.48 mm | - | - | - |
| 1777920237 | 21.67° C | 44% | 1014.5 hPa | 194.31 mm | - | - | - |
| 1777919937 | 21.67° C | 44% | 1014.3 hPa | 154.43 mm | - | - | - |
| 1777919637 | 21.67° C | 44% | 1014.2 hPa | 7.11 mm | - | - | - |
| 1777919337 | 21.67° C | 44% | 1014.3 hPa | 234.19 mm | - | - | - |
| 1777919037 | 21.67° C | 44% | 1014.3 hPa | 240.79 mm | - | - | - |
| 1777918737 | 22.22° C | 44% | 1014.2 hPa | 152.4 mm | - | - | - |
| 1777918437 | 22.22° C | 44% | 1014.2 hPa | 228.35 mm | - | - | - |
| 1777918137 | 22.22° C | 44% | 1014.2 hPa | 203.71 mm | - | - | - |
| 1777917837 | 22.22° C | 44% | 1014.2 hPa | 217.68 mm | - | - | - |
| 1777917537 | 22.22° C | 44% | 1014.2 hPa | 133.6 mm | - | - | - |
| 1777917237 | 22.78° C | 44% | 1014.1 hPa | 194.82 mm | - | - | - |
* Rain latest hour (hover to see other rain measurements)
** Current wind speed in m/s (hover to see current wind gust speed)